sat.trackr.live / text

‹ back to catalog

EUTELSAT 21B

NORAD 38992 · 2012-062B

PAYLOAD ACTIVE UNKNOWN

§ Identity

Operator
Country
EUTE
Launch date
2012-11-10
Launch site
FRGUI
Launch vehicle
Mass (kg)
RCS (m²)
5.15

Purposes: comms

External: N2YO · Heavens-Above · Gunter

§ Orbital elements

Epoch: 2026-09-10T02:07:55.140096Z

Period
1,436.05 min
Inclination
0.0707°
Eccentricity
0.0003002
Mean motion
1.00275352 rev/d
Perigee alt
35,772.9 km
Apogee alt
35,798.3 km
Semi-major
42,163.7 km
B*
0.0000e+0
RAAN
342.0284°
Arg perigee
185.4618°
Mean anomaly
235.2515°
Rev number
5,067

§ Raw data

EUTELSAT 21B1 38992U 12062B   26253.08883264  .00000110  00000+0  00000+0 0  99992 38992   0.0707 342.0284 0003002 185.4618 235.2515  1.00275352 50674

JSON: /api/v1/satellites/38992 · /tle

For live sub-satellite position, see the globe view (requires WebGL).

§ Visibility from observer

Set your observer location to see the next 7 days of passes ≥ 10°. The values pass through the URL so the page stays shareable.

No JS? Fill the form by hand. The geolocation button needs JavaScript.